User: anonymous   Login
Location: Ottawa
(45.4170°N, 75.7000°W)
Time: 19:31:23
(UTC-04:00)
Language:

STS-133 - Orbit

View from above orbital plane
View from above orbital plane
View from above satellite
View from above satellite

Ground track
Ground track

The orbit data is extracted from the following two-line orbital elements,

1 37371U 11008A   11068.51238789 -.00022696  00000-0 -12376-3 0   349
2 37371 051.6437 312.1256 0027473 001.6013 061.0412 15.77976925  1994
Epoch (UTC): 09 March 2011 12:17:50
Eccentricity: 0.0027473
inclination: 51.6437°
perigee height: 318 km
apogee height: 354 km
right ascension of ascending node: 312.1256°
argument of perigee: 1.6013°
revolutions per day: 15.77976925
mean anomaly at epoch: 61.0412°
orbit number at epoch: 199

The dashed part of the orbit path shows where the satellite is in the earth's shadow,  

DLR